QFA2071 YSSY-YBBN

Flight info

Callsign QFA2071
Flight time 1h 12m
Altitude 41000
Route OLSEM Y193 BANDA H252 GOMOL
Aircraft A35K/H-SDE2E3GHIJ3J4J5LM1ORWXY/LB1D1

Departure

Time 2026-04-24 07:31
Airport Sydney Kingsford Smith International Airport (YSSY)

Arrival

Time 2026-04-24 08:44
Airport Brisbane International Airport (YBBN)
Time Latitude Longitude Altitude Speed Heading
2026-04-24 07:11 -33.94341 151.18012 31 ft 0 kts 169°
2026-04-24 07:21 -33.94325 151.18009 30 ft 3 kts 169°
2026-04-24 07:22 -33.94307 151.18005 31 ft 3 kts 169°
2026-04-24 07:22 -33.94288 151.18001 31 ft 3 kts 187°
2026-04-24 07:22 -33.94270 151.18008 30 ft 3 kts 224°
2026-04-24 07:22 -33.94261 151.18020 29 ft 0 kts 248°
2026-04-24 07:25 -33.94262 151.18018 31 ft 2 kts 248°
2026-04-24 07:26 -33.94270 151.17977 31 ft 8 kts 258°
2026-04-24 07:26 -33.94307 151.17902 31 ft 13 kts 205°
2026-04-24 07:26 -33.94408 151.17910 30 ft 16 kts 172°
2026-04-24 07:26 -33.94530 151.17888 29 ft 20 kts 175°
2026-04-24 07:27 -33.94671 151.17922 29 ft 23 kts 166°
2026-04-24 07:27 -33.94841 151.17968 27 ft 27 kts 169°
2026-04-24 07:27 -33.95030 151.18015 31 ft 22 kts 167°
2026-04-24 07:27 -33.95097 151.18093 32 ft 22 kts 98°
2026-04-24 07:28 -33.95070 151.18289 31 ft 25 kts 77°
2026-04-24 07:28 -33.95029 151.18516 33 ft 7 kts 77°
2026-04-24 07:28 -33.95021 151.18558 32 ft 10 kts 77°
2026-04-24 07:28 -33.95019 151.18567 32 ft 1 kts 77°
2026-04-24 07:29 -33.95012 151.18607 32 ft 9 kts 78°
2026-04-24 07:29 -33.94997 151.18698 30 ft 8 kts 78°
2026-04-24 07:29 -33.94996 151.18705 30 ft 3 kts 78°
2026-04-24 07:29 -33.94993 151.18721 30 ft 0 kts 78°
2026-04-24 07:30 -33.94988 151.18749 30 ft 7 kts 78°
2026-04-24 07:30 -33.94999 151.18821 30 ft 12 kts 121°
2026-04-24 07:30 -33.95081 151.18869 29 ft 16 kts 171°
2026-04-24 07:30 -33.95170 151.18888 28 ft 0 kts 169°
2026-04-24 07:31 -33.95184 151.18891 28 ft 7 kts 168°
2026-04-24 07:31 -33.95557 151.18988 30 ft 106 kts 168°
2026-04-24 07:31 -33.96254 151.19173 86 ft 166 kts 165°
2026-04-24 07:31 -33.97390 151.19577 765 ft 190 kts 154°
2026-04-24 07:32 -33.98384 151.20676 1649 ft 202 kts 126°
2026-04-24 07:32 -33.99282 151.22101 2184 ft 221 kts 125°
2026-04-24 07:32 -34.00237 151.23587 3077 ft 226 kts 127°
2026-04-24 07:32 -34.01322 151.24996 3929 ft 236 kts 135°
2026-04-24 07:33 -34.02610 151.26330 4613 ft 251 kts 139°
2026-04-24 07:33 -34.03997 151.27688 5411 ft 260 kts 139°
2026-04-24 07:33 -34.05419 151.29072 6282 ft 265 kts 139°
2026-04-24 07:33 -34.06866 151.30481 7154 ft 269 kts 139°
2026-04-24 07:34 -34.08294 151.31910 7994 ft 271 kts 136°
2026-04-24 07:34 -34.09519 151.33636 8859 ft 271 kts 120°
2026-04-24 07:34 -34.10221 151.35735 9801 ft 271 kts 102°
2026-04-24 07:34 -34.10312 151.38021 10546 ft 281 kts 84°
2026-04-24 07:35 -34.09718 151.40353 10859 ft 304 kts 63°
2026-04-24 07:35 -34.08327 151.42390 11199 ft 326 kts 40°
2026-04-24 07:35 -34.06286 151.43663 11776 ft 339 kts 18°
2026-04-24 07:35 -34.03913 151.43887 12465 ft 347 kts 356°
2026-04-24 07:36 -34.01489 151.43620 13119 ft 352 kts
2026-04-24 07:36 -33.99068 151.44041 13820 ft 352 kts 16°
2026-04-24 07:36 -33.96716 151.44928 14481 ft 355 kts 22°
2026-04-24 07:36 -33.94408 151.46032 15089 ft 359 kts 25°
2026-04-24 07:37 -33.92123 151.47219 15737 ft 362 kts 26°
2026-04-24 07:37 -33.89802 151.48436 16410 ft 365 kts 25°
2026-04-24 07:37 -33.87457 151.49639 17058 ft 369 kts 25°
2026-04-24 07:37 -33.85072 151.50829 17710 ft 372 kts 24°
2026-04-24 07:38 -33.82657 151.52006 18351 ft 376 kts 24°
2026-04-24 07:38 -33.80212 151.53180 18953 ft 379 kts 24°
2026-04-24 07:38 -33.77778 151.54339 19486 ft 384 kts 24°
2026-04-24 07:38 -33.75279 151.55527 20012 ft 388 kts 24°
2026-04-24 07:39 -33.72748 151.56728 20541 ft 392 kts 24°
2026-04-24 07:39 -33.70191 151.57944 21065 ft 396 kts 24°
2026-04-24 07:39 -33.67618 151.59167 21608 ft 400 kts 24°
2026-04-24 07:39 -33.65075 151.60535 22128 ft 402 kts 31°
2026-04-24 07:40 -33.62643 151.62219 22651 ft 404 kts 34°
2026-04-24 07:40 -33.60239 151.64016 23179 ft 408 kts 36°
2026-04-24 07:40 -33.57849 151.65876 23713 ft 411 kts 36°
2026-04-24 07:40 -33.55448 151.67779 24218 ft 414 kts 37°
2026-04-24 07:41 -33.53068 151.69673 24691 ft 417 kts 37°
2026-04-24 07:41 -33.50596 151.71519 25171 ft 422 kts 32°
2026-04-24 07:41 -33.47886 151.72942 25659 ft 428 kts 22°
2026-04-24 07:41 -33.45040 151.74048 26161 ft 432 kts 19°
2026-04-24 07:42 -33.42141 151.75042 26689 ft 436 kts 18°
2026-04-24 07:42 -33.39194 151.75985 27238 ft 439 kts 17°
2026-04-24 07:42 -33.36218 151.76916 27821 ft 442 kts 17°
2026-04-24 07:42 -33.33231 151.77854 28438 ft 445 kts 17°
2026-04-24 07:43 -33.30230 151.78800 29075 ft 448 kts 17°
2026-04-24 07:43 -33.27198 151.79763 29709 ft 452 kts 18°
2026-04-24 07:43 -33.24144 151.80740 30335 ft 456 kts 18°
2026-04-24 07:43 -33.21109 151.81716 30869 ft 460 kts 18°
2026-04-24 07:44 -33.17958 151.82731 31344 ft 465 kts 18°
2026-04-24 07:44 -33.14858 151.83730 31799 ft 470 kts 18°
2026-04-24 07:44 -33.11674 151.84756 32290 ft 475 kts 18°
2026-04-24 07:44 -33.08457 151.85790 32762 ft 479 kts 18°
2026-04-24 07:45 -33.05227 151.86828 33195 ft 484 kts 18°
2026-04-24 07:45 -33.01959 151.87877 33428 ft 484 kts 18°
2026-04-24 07:45 -32.95374 151.89989 33448 ft 504 kts 18°
2026-04-24 07:46 -32.91933 151.91095 33447 ft 518 kts 18°
2026-04-24 07:46 -32.88432 151.92217 33458 ft 525 kts 18°
2026-04-24 07:46 -32.81411 151.94454 33457 ft 524 kts 18°
2026-04-24 07:47 -32.74372 151.96694 33455 ft 523 kts 18°
2026-04-24 07:47 -32.67341 151.98932 33453 ft 522 kts 18°
2026-04-24 07:48 -32.60321 152.01164 33455 ft 522 kts 18°
2026-04-24 07:48 -32.53292 152.03396 33454 ft 522 kts 18°
2026-04-24 07:49 -32.46272 152.05622 33458 ft 523 kts 18°
2026-04-24 07:49 -32.39236 152.07847 33460 ft 522 kts 18°
2026-04-24 07:50 -32.32256 152.10053 33456 ft 522 kts 18°
2026-04-24 07:50 -32.25224 152.12271 33458 ft 522 kts 18°
2026-04-24 07:51 -32.18200 152.14481 33463 ft 522 kts 18°
2026-04-24 07:51 -32.11180 152.16689 33459 ft 522 kts 18°
2026-04-24 07:52 -32.04156 152.18896 33454 ft 522 kts 18°
2026-04-24 07:52 -31.97179 152.21083 33462 ft 522 kts 18°
2026-04-24 07:53 -31.90153 152.23281 33455 ft 522 kts 18°
2026-04-24 07:53 -31.83127 152.25477 33450 ft 522 kts 18°
2026-04-24 07:54 -31.76119 152.27663 33462 ft 521 kts 18°
2026-04-24 07:54 -31.69099 152.29849 33457 ft 521 kts 18°
2026-04-24 07:55 -31.62089 152.32028 33461 ft 521 kts 18°
2026-04-24 07:55 -31.55060 152.34211 33468 ft 521 kts 18°
2026-04-24 07:56 -31.48048 152.36384 33462 ft 521 kts 18°
2026-04-24 07:56 -31.41065 152.38546 33462 ft 522 kts 18°
2026-04-24 07:57 -31.34045 152.40715 33457 ft 521 kts 18°
2026-04-24 07:57 -31.27025 152.42883 33458 ft 522 kts 18°
2026-04-24 07:58 -31.19993 152.45049 33460 ft 522 kts 18°
2026-04-24 07:58 -31.12960 152.47213 33460 ft 522 kts 18°
2026-04-24 07:59 -31.05980 152.49359 33460 ft 522 kts 16°
2026-04-24 07:59 -30.98942 152.51517 33457 ft 523 kts 16°
2026-04-24 08:00 -30.91908 152.53671 33460 ft 521 kts 16°
2026-04-24 08:00 -30.84906 152.55811 33458 ft 520 kts 15°
2026-04-24 08:01 -30.77895 152.57967 33456 ft 520 kts 17°
2026-04-24 08:01 -30.70975 152.60435 33456 ft 520 kts 19°
2026-04-24 08:02 -30.64092 152.63028 33456 ft 520 kts 19°
2026-04-24 08:02 -30.57248 152.65561 33454 ft 520 kts 18°
2026-04-24 08:03 -30.50326 152.68073 33455 ft 522 kts 18°
2026-04-24 08:03 -30.43385 152.70573 33454 ft 522 kts 18°
2026-04-24 08:04 -30.36452 152.73071 33452 ft 521 kts 18°
2026-04-24 08:04 -30.29527 152.75562 33449 ft 521 kts 18°
2026-04-24 08:05 -30.22597 152.78051 33444 ft 522 kts 18°
2026-04-24 08:05 -30.15708 152.80525 33447 ft 522 kts 17°
2026-04-24 08:06 -30.08781 152.83008 33443 ft 520 kts 17°
2026-04-24 08:06 -30.01885 152.85479 33430 ft 518 kts 17°
2026-04-24 08:07 -29.94971 152.87951 33425 ft 518 kts 17°
2026-04-24 08:07 -29.88129 152.90397 33422 ft 517 kts 16°
2026-04-24 08:08 -29.81262 152.92837 33419 ft 516 kts 16°
2026-04-24 08:09 -29.70981 152.96492 33413 ft 516 kts 16°
2026-04-24 08:09 -29.64117 152.98929 33411 ft 516 kts 16°
2026-04-24 08:10 -29.57257 153.01356 33406 ft 516 kts 16°
2026-04-24 08:10 -29.50418 153.03774 33406 ft 516 kts 17°
2026-04-24 08:11 -29.43507 153.06224 33401 ft 517 kts 16°
2026-04-24 08:11 -29.36653 153.08643 33401 ft 520 kts 16°
2026-04-24 08:12 -29.29721 153.11084 33395 ft 521 kts 16°
2026-04-24 08:12 -29.22791 153.13529 33396 ft 520 kts 16°
2026-04-24 08:13 -29.17050 153.15545 33385 ft 519 kts 16°
2026-04-24 08:13 -29.08988 153.18379 33384 ft 521 kts 16°
2026-04-24 08:14 -29.03180 153.20413 33384 ft 521 kts 16°
2026-04-24 08:14 -28.96282 153.22831 33379 ft 521 kts 16°
2026-04-24 08:15 -28.89325 153.25267 33379 ft 523 kts 16°
2026-04-24 08:15 -28.82377 153.27694 33379 ft 523 kts 16°
2026-04-24 08:16 -28.75481 153.30099 32801 ft 508 kts 16°
2026-04-24 08:16 -28.72103 153.31274 31789 ft 506 kts 17°
2026-04-24 08:16 -28.68759 153.32436 31142 ft 498 kts 17°
2026-04-24 08:16 -28.65514 153.33560 30551 ft 488 kts 18°
2026-04-24 08:17 -28.62291 153.34676 29804 ft 481 kts 18°
2026-04-24 08:17 -28.59104 153.35777 28910 ft 477 kts 19°
2026-04-24 08:17 -28.55943 153.36880 28055 ft 473 kts 19°
2026-04-24 08:17 -28.52807 153.37980 27254 ft 468 kts 19°
2026-04-24 08:18 -28.49728 153.39056 26827 ft 456 kts 20°
2026-04-24 08:18 -28.46734 153.40094 26534 ft 443 kts 19°
2026-04-24 08:18 -28.43831 153.41098 26245 ft 430 kts 20°
2026-04-24 08:18 -28.41015 153.42074 25986 ft 417 kts 20°
2026-04-24 08:19 -28.38276 153.43021 25699 ft 406 kts 20°
2026-04-24 08:19 -28.35596 153.43940 25253 ft 400 kts 19°
2026-04-24 08:19 -28.32935 153.44854 24622 ft 399 kts 20°
2026-04-24 08:19 -28.30276 153.45778 23928 ft 401 kts 20°
2026-04-24 08:20 -28.27636 153.46697 23121 ft 402 kts 20°
2026-04-24 08:20 -28.24954 153.47627 22321 ft 403 kts 20°
2026-04-24 08:20 -28.22300 153.48540 21548 ft 391 kts 20°
2026-04-24 08:20 -28.19742 153.49411 20805 ft 380 kts 20°
2026-04-24 08:21 -28.17151 153.50003 20070 ft 380 kts
2026-04-24 08:21 -28.14501 153.49921 19361 ft 381 kts 354°
2026-04-24 08:21 -28.11889 153.49419 18648 ft 379 kts 352°
2026-04-24 08:21 -28.09344 153.48875 17866 ft 376 kts 352°
2026-04-24 08:22 -28.06751 153.48321 17083 ft 372 kts 352°
2026-04-24 08:22 -28.04227 153.47790 16322 ft 367 kts 353°
2026-04-24 08:22 -28.01723 153.47268 15583 ft 363 kts 353°
2026-04-24 08:22 -27.99229 153.46750 14851 ft 365 kts 353°
2026-04-24 08:23 -27.96779 153.46240 14146 ft 354 kts 353°
2026-04-24 08:23 -27.94361 153.45739 13360 ft 352 kts 353°
2026-04-24 08:23 -27.91988 153.45248 12607 ft 349 kts 353°
2026-04-24 08:23 -27.89611 153.44757 11844 ft 345 kts 353°
2026-04-24 08:24 -27.87263 153.44271 11117 ft 342 kts 353°
2026-04-24 08:24 -27.84930 153.43789 10397 ft 338 kts 353°
2026-04-24 08:24 -27.82633 153.43318 9439 ft 333 kts 353°
2026-04-24 08:24 -27.80374 153.42855 8618 ft 328 kts 353°
2026-04-24 08:25 -27.78138 153.42392 7862 ft 326 kts 353°
2026-04-24 08:25 -27.75917 153.41932 7128 ft 322 kts 353°
2026-04-24 08:25 -27.73758 153.41484 6462 ft 306 kts 353°
2026-04-24 08:25 -27.71734 153.41063 6078 ft 297 kts 354°
2026-04-24 08:26 -27.69701 153.40647 5980 ft 297 kts 353°
2026-04-24 08:26 -27.67654 153.40227 5957 ft 298 kts 353°
2026-04-24 08:26 -27.65621 153.39808 5959 ft 297 kts 353°
2026-04-24 08:26 -27.63583 153.39513 5956 ft 294 kts
2026-04-24 08:27 -27.61547 153.39524 5971 ft 291 kts
2026-04-24 08:27 -27.59519 153.39622 5961 ft 291 kts
2026-04-24 08:27 -27.57489 153.39725 5975 ft 291 kts
2026-04-24 08:27 -27.55463 153.39823 5960 ft 291 kts
2026-04-24 08:28 -27.53438 153.39920 5958 ft 292 kts
2026-04-24 08:28 -27.51410 153.40014 5958 ft 291 kts
2026-04-24 08:28 -27.49384 153.40108 5961 ft 291 kts
2026-04-24 08:28 -27.47380 153.40200 5957 ft 291 kts
2026-04-24 08:29 -27.45357 153.40293 5969 ft 291 kts
2026-04-24 08:29 -27.43332 153.40386 5957 ft 291 kts
2026-04-24 08:29 -27.41307 153.40479 5973 ft 291 kts
2026-04-24 08:29 -27.39285 153.40574 5972 ft 291 kts
2026-04-24 08:30 -27.37255 153.40667 5978 ft 292 kts
2026-04-24 08:30 -27.35227 153.40764 5970 ft 292 kts
2026-04-24 08:30 -27.33191 153.40855 5972 ft 292 kts
2026-04-24 08:30 -27.31158 153.40946 5969 ft 292 kts
2026-04-24 08:31 -27.29129 153.41037 5961 ft 292 kts
2026-04-24 08:31 -27.27102 153.41128 5962 ft 291 kts
2026-04-24 08:31 -27.25073 153.41221 5962 ft 292 kts
2026-04-24 08:31 -27.23044 153.41314 5960 ft 292 kts
2026-04-24 08:32 -27.21035 153.41390 5956 ft 289 kts
2026-04-24 08:32 -27.19129 153.40961 5869 ft 277 kts 335°
2026-04-24 08:32 -27.17591 153.39765 5746 ft 260 kts 320°
2026-04-24 08:32 -27.16257 153.38489 5527 ft 245 kts 319°
2026-04-24 08:33 -27.14976 153.37250 5066 ft 242 kts 319°
2026-04-24 08:33 -27.13695 153.36016 4577 ft 242 kts 318°
2026-04-24 08:33 -27.12663 153.34579 4066 ft 238 kts 292°
2026-04-24 08:33 -27.12375 153.32818 3527 ft 224 kts 262°
2026-04-24 08:34 -27.12512 153.31142 3091 ft 207 kts 256°
2026-04-24 08:34 -27.12673 153.29620 2960 ft 183 kts 255°
2026-04-24 08:34 -27.12804 153.28302 2958 ft 158 kts 254°
2026-04-24 08:34 -27.12915 153.27153 2968 ft 141 kts 252°
2026-04-24 08:35 -27.13054 153.26086 2969 ft 135 kts 245°
2026-04-24 08:35 -27.13498 153.25241 2990 ft 120 kts 213°
2026-04-24 08:35 -27.14128 153.24660 2961 ft 116 kts 203°
2026-04-24 08:35 -27.14804 153.24181 2877 ft 112 kts 199°
2026-04-24 08:36 -27.15477 153.23758 2601 ft 113 kts 197°
2026-04-24 08:36 -27.16178 153.23352 2334 ft 113 kts 195°
2026-04-24 08:36 -27.16860 153.22963 2149 ft 107 kts 196°
2026-04-24 08:36 -27.17517 153.22584 2026 ft 106 kts 196°
2026-04-24 08:37 -27.18174 153.22204 1978 ft 107 kts 196°
2026-04-24 08:37 -27.18851 153.21815 1978 ft 110 kts 197°
2026-04-24 08:37 -27.19536 153.21423 1881 ft 109 kts 198°
2026-04-24 08:37 -27.20217 153.21032 1958 ft 111 kts 198°
2026-04-24 08:38 -27.20903 153.20639 1895 ft 110 kts 198°
2026-04-24 08:38 -27.21571 153.20265 1730 ft 108 kts 196°
2026-04-24 08:38 -27.22257 153.19893 1578 ft 109 kts 196°
2026-04-24 08:38 -27.22942 153.19512 1474 ft 114 kts 199°
2026-04-24 08:39 -27.23591 153.18991 1304 ft 115 kts 206°
2026-04-24 08:39 -27.24251 153.18491 1032 ft 114 kts 205°
2026-04-24 08:39 -27.24912 153.18017 896 ft 110 kts 204°
2026-04-24 08:39 -27.25570 153.17581 893 ft 110 kts 201°
2026-04-24 08:40 -27.26245 153.17189 953 ft 110 kts 200°
2026-04-24 08:40 -27.26937 153.16753 906 ft 116 kts 199°
2026-04-24 08:40 -27.27651 153.16425 837 ft 106 kts 191°
2026-04-24 08:40 -27.28344 153.16252 1041 ft 104 kts 184°
2026-04-24 08:41 -27.29024 153.15891 1078 ft 110 kts 199°
2026-04-24 08:41 -27.29712 153.15547 1053 ft 107 kts 192°
2026-04-24 08:41 -27.30397 153.15168 838 ft 112 kts 199°
2026-04-24 08:41 -27.31093 153.14776 597 ft 111 kts 201°
2026-04-24 08:42 -27.31820 153.14441 657 ft 113 kts 200°
2026-04-24 08:42 -27.32506 153.14012 665 ft 112 kts 202°
2026-04-24 08:42 -27.33158 153.13557 610 ft 109 kts 201°
2026-04-24 08:42 -27.33854 153.13231 423 ft 111 kts 197°
2026-04-24 08:43 -27.34519 153.12853 294 ft 103 kts 205°
2026-04-24 08:43 -27.35141 153.12502 173 ft 95 kts 202°
2026-04-24 08:43 -27.35712 153.12166 39 ft 94 kts 204°
2026-04-24 08:43 -27.36220 153.11883 27 ft 56 kts 209°
2026-04-24 08:44 -27.36480 153.11725 25 ft 38 kts 206°
2026-04-24 08:44 -27.36531 153.11708 25 ft 6 kts 173°
2026-04-24 08:44 -27.36564 153.11734 26 ft 3 kts 114°
2026-04-24 08:44 -27.36575 153.11765 28 ft 5 kts 113°
2026-04-24 08:45 -27.36592 153.11807 24 ft 7 kts 115°
2026-04-24 08:45 -27.36616 153.11864 25 ft 9 kts 115°
2026-04-24 08:45 -27.36655 153.11918 24 ft 9 kts 145°
2026-04-24 08:45 -27.36717 153.11913 28 ft 10 kts 199°
2026-04-24 08:46 -27.36784 153.11878 25 ft 11 kts 208°
2026-04-24 08:46 -27.36861 153.11833 27 ft 13 kts 207°
2026-04-24 08:46 -27.36950 153.11782 27 ft 15 kts 207°
2026-04-24 08:46 -27.37046 153.11727 27 ft 16 kts 207°
2026-04-24 08:47 -27.37148 153.11668 28 ft 17 kts 207°
2026-04-24 08:47 -27.37256 153.11614 26 ft 16 kts 189°
2026-04-24 08:47 -27.37348 153.11672 27 ft 16 kts 125°
2026-04-24 08:47 -27.37403 153.11785 25 ft 17 kts 117°
2026-04-24 08:48 -27.37457 153.11907 25 ft 18 kts 117°
2026-04-24 08:48 -27.37515 153.12032 27 ft 19 kts 117°
2026-04-24 08:48 -27.37577 153.12166 28 ft 20 kts 118°
2026-04-24 08:48 -27.37641 153.12306 25 ft 20 kts 116°
2026-04-24 08:49 -27.37707 153.12451 26 ft 21 kts 116°
2026-04-24 08:49 -27.37776 153.12602 28 ft 22 kts 117°
2026-04-24 08:49 -27.37831 153.12723 25 ft 6 kts 117°
2026-04-24 08:49 -27.37851 153.12769 25 ft 7 kts 116°
2026-04-24 08:50 -27.37889 153.12802 26 ft 7 kts 165°
2026-04-24 08:50 -27.37937 153.12792 26 ft 8 kts 200°
2026-04-24 08:50 -27.38035 153.12739 25 ft 26 kts 207°
2026-04-24 08:50 -27.38200 153.12646 27 ft 26 kts 206°
2026-04-24 08:51 -27.38361 153.12555 26 ft 21 kts 206°
2026-04-24 08:51 -27.38397 153.12535 25 ft 10 kts 208°
2026-04-24 08:51 -27.38448 153.12473 27 ft 12 kts 258°
2026-04-24 08:51 -27.38465 153.12387 28 ft 12 kts 233°
2026-04-24 08:52 -27.38499 153.12333 25 ft 6 kts 267°
2026-04-24 08:52 -27.38478 153.12274 27 ft 10 kts 310°
2026-04-24 08:52 -27.38435 153.12195 29 ft 14 kts 282°
2026-04-24 08:52 -27.38432 153.12173 27 ft 0 kts 277°